Weather Roundup
Issued by NWS Springfield, MO

Home | Current Version | Previous Version | Text Only | Print | Product List | Glossary On
Versions: 1 2 3 4 5 6 7 8 9 10 11 12 13 14 15 16 17 18 19 20 21 22 23 24 25 26 27 28 29 30 31 32 33 34 35 36 37 38 39 40 41 42 43 44 45 46 47 48 49 50
000
NZUS99 KSGF 191207
HRRSGF

HOURLY WEATHER
NATIONAL WEATHER SERVICE SPRINGFIELD MO
600 AM CST SUN FEB 19 2017

......SGF CWA......

CITY           SKY/WX    TMP DP  RH WIND       PRES   REMARKS
SPRINGFIELD    CLEAR     45  43  93 E7        29.98R FOG
6HR MIN TEMP:  44; 6HR MAX TEMP:  48;

JOPLIN         PTCLDY    45  45 100 E5        29.96R FOG
6HR MIN TEMP:  42; 6HR MAX TEMP:  49;

WEST PLAINS    FOG       43  43 100 CALM      30.03R VSB 1/4
6HR MIN TEMP:  39; 6HR MAX TEMP:  49;

ROLLA          FOG       42  42 100 S7        30.00R VSB 1/4
6HR MIN TEMP:  41; 6HR MAX TEMP:  50;

OSAGE BEACH    CLEAR     45  43  93 S3        30.02R FOG
BRANSON        CLEAR     46  46 100 CALM      30.00R

......SURROUNDING SGF CWA......

CITY           SKY/WX    TMP DP  RH WIND       PRES   REMARKS
CHANUTE        FOG       43  42  97 S5        29.95R VSB 1/4
PARSONS        FOG       39  39 100 E3        29.95S VSB 1/2
COFFEYVILLE    FOG       38  38 100 E3        29.95R VSB 1/2
EMPORIA        FOG       42  42 100 S9        29.92R VSB 1/4
GROVE OK       CLEAR     41  41 100 CALM      29.96S FOG
ROGERS AR      CLOUDY    47  46  97 SE6       29.99R
SILOAM SPRINGS CLEAR     48  45  87 E7        29.96S
HARRISON AR    CLEAR     46  45  96 CALM      29.99R FOG
NEAR YELLVILLE MOCLDY    45  39  81 E3        29.99R VSB 1/2

......KANSAS AND MISSOURI......

CITY           SKY/WX    TMP DP  RH WIND       PRES   REMARKS
KANSAS CTY INT CLEAR     45  45 100 S9        29.94R FOG
DOWNTOWN KC    CLEAR     50  48  93 S3        29.94R
COLUMBIA       CLEAR     46  45  96 S6        30.00R FOG
SEDALIA        FOG       42  42 100 S5        29.99S VSB 1/4
ST JOSEPH      CLEAR     39  39 100 SE5       29.93S FOG
ST LOUIS       CLEAR     43  41  93 CALM      30.00R
SPIRIT OF STL  FOG       38  38 100 CALM      30.00R VSB 1/2
KIRKSVILLE     CLEAR     35  32  88 SW6       29.97R WCI  30
WICHITA        MOCLDY    44  44 100 S3        29.88R FOG
TOPEKA         FOG       43  40  89 CALM      29.93R VSB 1/4
OLATHE         FOG       43  43 100 S5        29.95R VSB 1/4

......TENNESSEE......

CITY           SKY/WX    TMP DP  RH WIND       PRES   REMARKS
MEMPHIS        CLEAR     48  47  96 S6        30.04R
NASHVILLE      PTCLDY    46  44  93 S5        30.04S FOG

......ARKANSAS.......

CITY           SKY/WX    TMP DP  RH WIND       PRES   REMARKS
FAYETTEVILLE   PTCLDY    38  38 100 CALM      29.98R
FT SMITH       CLEAR     49  47  93 E7        29.97S FOG
LITTLE ROCK    CLOUDY    50  50 100 CALM      30.04R FOG

......OKLAHOMA.......

CITY           SKY/WX    TMP DP  RH WIND       PRES   REMARKS
TULSA          CLOUDY    50  50 100 E7        29.90S
PONCA CITY     CLOUDY    51  48  89 SE10      29.89R
MCALESTER      CLOUDY    59  55  87 SE5       29.92R
OKLAHOMA CITY  CLOUDY    55  55 100 S13       29.86R FOG

......IOWA............

CITY           SKY/WX    TMP DP  RH WIND       PRES   REMARKS
DES MOINES     CLEAR     41  33  73 SE7       29.94R
QUAD CITIES    CLOUDY    30  25  81 CALM      29.97R

......ILLINOIS........

CITY           SKY/WX    TMP DP  RH WIND       PRES   REMARKS
QUINCY         CLEAR     45  43  93 S5        29.96R
CHICAGO        CLEAR     39  34  82 W6        29.97R WCI  35



USA.gov is the U.S. government's official web portal to all federal, state and local government web resources and services.